View from above orbital plane
|
View from above satellite
|
Ground track
|
The orbit data is extracted from the following two-line orbital elements,
1 43597U 98067PJ 19046.90750221 +.00012080 +00000-0 +16095-3 0 9999
2 43597 051.6360 240.7608 0003213 032.3322 327.7867 15.58575958028684
Epoch (UTC): | 15 February 2019 21:46:48 |
Eccentricity: | 0.0003213 |
inclination: | 51.6360° |
perigee height: | 389 km |
apogee height: | 394 km |
right ascension of ascending node: | 240.7608° |
argument of perigee: | 32.3322° |
revolutions per day: | 15.58575958 |
mean anomaly at epoch: | 327.7867° |
orbit number at epoch: | 2868 |
The dashed part of the orbit path shows where the satellite is in the earth's shadow,
|
|